Terug naar catalogus

DELTA 1 DEB

ActiefPO
NORAD 8964·DEBRIS·🇺🇸 United States

Gelanceerd Jan 22, 1975 vanaf Vandenberg Space Force Base

Loading…

Volgende Passages (komende 24 uur)

TLE

VersSource: Space-Track

Epoch: Sep 14, 2026, 00:32 UTC

1 08964U 75004AW  26257.02233461  .00000325  00000-0  11867-3 0  9992
2 08964  97.6656 108.1681 0101869  23.0395 337.5314 14.35547497633232

Volg DELTA 1 DEB in realtime met AllMySat

Download on the App Store